History Data

Date (GMT-7:00) CPM ACPM uSv/h Latitude Longitude Altitude CO CO2 TVOC HCHO Air Pressure Temperature Humidity Type
2026-01-15 20:52:11 17 18.20 0.085000 41.649648 41.62752893 0 0 0 0 0 0 0 0 STD5.60
2026-01-15 20:47:09 17 16.70 0.085000 41.649648 41.62752893 0 0 0 0 0 0 0 0 STD5.60
2026-01-15 20:42:07 19 17.70 0.095000 41.649648 41.62752893 0 0 0 0 0 0 0 0 STD5.60
2026-01-15 20:37:05 21 19.80 0.105000 41.649648 41.62752893 0 0 0 0 0 0 0 0 STD5.60
2026-01-15 20:32:04 17 20.00 0.085000 41.649648 41.62752893 0 0 0 0 0 0 0 0 STD5.60
2026-01-15 20:27:01 19 19.60 0.095000 41.649648 41.62752893 0 0 0 0 0 0 0 0 STD5.60
2026-01-15 20:21:56 14 18.00 0.070000 41.649648 41.62752893 0 0 0 0 0 0 0 0 STD5.60
2026-01-15 20:16:54 17 17.90 0.085000 41.649648 41.62752893 0 0 0 0 0 0 0 0 STD5.60
2026-01-15 20:11:53 17 17.90 0.085000 41.649648 41.62752893 0 0 0 0 0 0 0 0 STD5.60
2026-01-15 20:06:50 14 15.90 0.070000 41.649648 41.62752893 0 0 0 0 0 0 0 0 STD5.60
2026-01-15 20:01:48 16 17.70 0.080000 41.649648 41.62752893 0 0 0 0 0 0 0 0 STD5.60
2026-01-15 19:56:47 28 19.50 0.140000 41.649648 41.62752893 0 0 0 0 0 0 0 0 STD5.60
2026-01-15 19:51:44 23 18.20 0.115000 41.649648 41.62752893 0 0 0 0 0 0 0 0 STD5.60
2026-01-15 19:46:42 21 17.80 0.105000 41.649648 41.62752893 0 0 0 0 0 0 0 0 STD5.60
2026-01-15 19:41:41 17 18.00 0.085000 41.649648 41.62752893 0 0 0 0 0 0 0 0 STD5.60
2026-01-15 19:36:38 20 16.50 0.100000 41.649648 41.62752893 0 0 0 0 0 0 0 0 STD5.60
2026-01-15 19:31:37 16 17.70 0.080000 41.649648 41.62752893 0 0 0 0 0 0 0 0 STD5.60
2026-01-15 19:26:34 15 19.30 0.075000 41.649648 41.62752893 0 0 0 0 0 0 0 0 STD5.60
2026-01-15 19:21:31 21 17.80 0.105000 41.649648 41.62752893 0 0 0 0 0 0 0 0 STD5.60
2026-01-15 19:16:28 20 16.10 0.100000 41.649648 41.62752893 0 0 0 0 0 0 0 0 STD5.60
2026-01-15 19:11:26 18 17.00 0.090000 41.649648 41.62752893 0 0 0 0 0 0 0 0 STD5.60
2026-01-15 19:06:25 18 17.90 0.090000 41.649648 41.62752893 0 0 0 0 0 0 0 0 STD5.60
2026-01-15 19:01:23 23 19.00 0.115000 41.649648 41.62752893 0 0 0 0 0 0 0 0 STD5.60
2026-01-15 18:56:22 18 19.30 0.090000 41.649648 41.62752893 0 0 0 0 0 0 0 0 STD5.60
2026-01-15 18:51:19 19 17.20 0.095000 41.649648 41.62752893 0 0 0 0 0 0 0 0 STD5.60
2026-01-15 18:46:17 28 15.80 0.140000 41.649648 41.62752893 0 0 0 0 0 0 0 0 STD5.60
2026-01-15 18:41:15 11 16.40 0.055000 41.649648 41.62752893 0 0 0 0 0 0 0 0 STD5.60
2026-01-15 18:36:13 11 16.60 0.055000 41.649648 41.62752893 0 0 0 0 0 0 0 0 STD5.60
2026-01-15 18:31:11 12 17.40 0.060000 41.649648 41.62752893 0 0 0 0 0 0 0 0 STD5.60
2026-01-15 18:26:09 18 18.40 0.090000 41.649648 41.62752893 0 0 0 0 0 0 0 0 STD5.60
2026-01-15 18:21:05 26 17.20 0.130000 41.649648 41.62752893 0 0 0 0 0 0 0 0 STD5.60
2026-01-15 18:16:03 15 17.90 0.075000 41.649648 41.62752893 0 0 0 0 0 0 0 0 STD5.60
2026-01-15 18:11:00 18 18.90 0.090000 41.649648 41.62752893 0 0 0 0 0 0 0 0 STD5.60
2026-01-15 18:05:59 16 18.70 0.080000 41.649648 41.62752893 0 0 0 0 0 0 0 0 STD5.60
2026-01-15 18:00:57 19 19.10 0.095000 41.649648 41.62752893 0 0 0 0 0 0 0 0 STD5.60
2026-01-15 17:55:56 21 18.80 0.105000 41.649648 41.62752893 0 0 0 0 0 0 0 0 STD5.60
2026-01-15 17:50:53 22 16.50 0.110000 41.649648 41.62752893 0 0 0 0 0 0 0 0 STD5.60
2026-01-15 17:45:51 13 16.30 0.065000 41.649648 41.62752893 0 0 0 0 0 0 0 0 STD5.60
2026-01-15 17:40:49 13 16.90 0.065000 41.649648 41.62752893 0 0 0 0 0 0 0 0 STD5.60
2026-01-15 17:35:47 18 17.80 0.090000 41.649648 41.62752893 0 0 0 0 0 0 0 0 STD5.60
2026-01-15 17:30:45 21 19.40 0.105000 41.649648 41.62752893 0 0 0 0 0 0 0 0 STD5.60
2026-01-15 17:25:44 27 17.00 0.135000 41.649648 41.62752893 0 0 0 0 0 0 0 0 STD5.60
2026-01-15 17:20:40 9 17.20 0.045000 41.649648 41.62752893 0 0 0 0 0 0 0 0 STD5.60
2026-01-15 17:15:38 20 17.90 0.100000 41.649648 41.62752893 0 0 0 0 0 0 0 0 STD5.60
2026-01-15 17:10:36 16 16.10 0.080000 41.649648 41.62752893 0 0 0 0 0 0 0 0 STD5.60
2026-01-15 17:05:34 20 15.40 0.100000 41.649648 41.62752893 0 0 0 0 0 0 0 0 STD5.60
2026-01-15 17:00:32 19 17.40 0.095000 41.649648 41.62752893 0 0 0 0 0 0 0 0 STD5.60
2026-01-15 16:55:31 16 18.70 0.080000 41.649648 41.62752893 0 0 0 0 0 0 0 0 STD5.60
2026-01-15 16:50:29 16 18.90 0.080000 41.649648 41.62752893 0 0 0 0 0 0 0 0 STD5.60
2026-01-15 16:45:27 16 17.50 0.080000 41.649648 41.62752893 0 0 0 0 0 0 0 0 STD5.60
2026-01-15 16:40:25 18 17.50 0.090000 41.649648 41.62752893 0 0 0 0 0 0 0 0 STD5.60
2026-01-15 16:35:22 25 18.20 0.125000 41.649648 41.62752893 0 0 0 0 0 0 0 0 STD5.60
2026-01-15 16:30:20 20 18.20 0.100000 41.649648 41.62752893 0 0 0 0 0 0 0 0 STD5.60
2026-01-15 16:25:19 20 19.40 0.100000 41.649648 41.62752893 0 0 0 0 0 0 0 0 STD5.60
2026-01-15 16:20:15 18 16.00 0.090000 41.649648 41.62752893 0 0 0 0 0 0 0 0 STD5.60
2026-01-15 16:15:14 8 15.90 0.040000 41.649648 41.62752893 0 0 0 0 0 0 0 0 STD5.60
2026-01-15 16:10:12 23 19.60 0.115000 41.649648 41.62752893 0 0 0 0 0 0 0 0 STD5.60
2026-01-15 16:05:09 23 18.70 0.115000 41.649648 41.62752893 0 0 0 0 0 0 0 0 STD5.60
2026-01-15 16:00:07 11 17.20 0.055000 41.649648 41.62752893 0 0 0 0 0 0 0 0 STD5.60
2026-01-15 15:55:05 15 19.20 0.075000 41.649648 41.62752893 0 0 0 0 0 0 0 0 STD5.60
2026-01-15 15:50:03 16 21.30 0.080000 41.649648 41.62752893 0 0 0 0 0 0 0 0 STD5.60
2026-01-15 15:45:01 21 18.10 0.105000 41.649648 41.62752893 0 0 0 0 0 0 0 0 STD5.60
2026-01-15 15:39:59 16 16.80 0.080000 41.649648 41.62752893 0 0 0 0 0 0 0 0 STD5.60
2026-01-15 15:34:58 15 18.90 0.075000 41.649648 41.62752893 0 0 0 0 0 0 0 0 STD5.60
2026-01-15 15:29:55 21 18.70 0.105000 41.649648 41.62752893 0 0 0 0 0 0 0 0 STD5.60
2026-01-15 15:24:53 18 19.00 0.090000 41.649648 41.62752893 0 0 0 0 0 0 0 0 STD5.60
2026-01-15 15:19:49 14 18.50 0.070000 41.649648 41.62752893 0 0 0 0 0 0 0 0 STD5.60
2026-01-15 15:14:46 17 18.20 0.085000 41.649648 41.62752893 0 0 0 0 0 0 0 0 STD5.60
2026-01-15 15:09:44 19 18.20 0.095000 41.649648 41.62752893 0 0 0 0 0 0 0 0 STD5.60
2026-01-15 15:04:42 15 18.30 0.075000 41.649648 41.62752893 0 0 0 0 0 0 0 0 STD5.60
2026-01-15 14:59:40 15 17.60 0.075000 41.649648 41.62752893 0 0 0 0 0 0 0 0 STD5.60
2026-01-15 14:54:38 10 17.20 0.050000 41.649648 41.62752893 0 0 0 0 0 0 0 0 STD5.60
2026-01-15 14:49:36 17 18.40 0.085000 41.649648 41.62752893 0 0 0 0 0 0 0 0 STD5.60
2026-01-15 14:44:35 16 17.50 0.080000 41.649648 41.62752893 0 0 0 0 0 0 0 0 STD5.60
2026-01-15 14:39:33 12 16.20 0.060000 41.649648 41.62752893 0 0 0 0 0 0 0 0 STD5.60
2026-01-15 14:34:31 17 17.20 0.085000 41.649648 41.62752893 0 0 0 0 0 0 0 0 STD5.60
2026-01-15 14:29:29 19 17.00 0.095000 41.649648 41.62752893 0 0 0 0 0 0 0 0 STD5.60
2026-01-15 14:24:25 13 17.90 0.065000 41.649648 41.62752893 0 0 0 0 0 0 0 0 STD5.60
2026-01-15 14:19:23 16 18.90 0.080000 41.649648 41.62752893 0 0 0 0 0 0 0 0 STD5.60
2026-01-15 14:14:21 22 17.30 0.110000 41.649648 41.62752893 0 0 0 0 0 0 0 0 STD5.60
2026-01-15 14:09:19 18 19.00 0.090000 41.649648 41.62752893 0 0 0 0 0 0 0 0 STD5.60
2026-01-15 14:04:17 18 18.70 0.090000 41.649648 41.62752893 0 0 0 0 0 0 0 0 STD5.60
2026-01-15 13:59:15 15 17.70 0.075000 41.649648 41.62752893 0 0 0 0 0 0 0 0 STD5.60
2026-01-15 13:54:13 14 17.50 0.070000 41.649648 41.62752893 0 0 0 0 0 0 0 0 STD5.60
2026-01-15 13:49:11 14 18.00 0.070000 41.649648 41.62752893 0 0 0 0 0 0 0 0 STD5.60
2026-01-15 13:44:09 21 17.50 0.105000 41.649648 41.62752893 0 0 0 0 0 0 0 0 STD5.60
2026-01-15 13:39:08 17 17.60 0.085000 41.649648 41.62752893 0 0 0 0 0 0 0 0 STD5.60
2026-01-15 13:34:05 21 16.80 0.105000 41.649648 41.62752893 0 0 0 0 0 0 0 0 STD5.60
2026-01-15 13:29:03 11 15.00 0.055000 41.649648 41.62752893 0 0 0 0 0 0 0 0 STD5.60
2026-01-15 13:24:00 12 17.00 0.060000 41.649648 41.62752893 0 0 0 0 0 0 0 0 STD5.60
2026-01-15 13:18:58 17 17.70 0.085000 41.649648 41.62752893 0 0 0 0 0 0 0 0 STD5.60
2026-01-15 13:13:56 21 18.60 0.105000 41.649648 41.62752893 0 0 0 0 0 0 0 0 STD5.60
2026-01-15 13:08:54 20 18.50 0.100000 41.649648 41.62752893 0 0 0 0 0 0 0 0 STD5.60
2026-01-15 13:03:52 8 16.50 0.040000 41.649648 41.62752893 0 0 0 0 0 0 0 0 STD5.60
2026-01-15 12:58:50 13 15.50 0.065000 41.649648 41.62752893 0 0 0 0 0 0 0 0 STD5.60
2026-01-15 12:53:48 16 15.00 0.080000 41.649648 41.62752893 0 0 0 0 0 0 0 0 STD5.60
2026-01-15 12:48:46 13 16.90 0.065000 41.649648 41.62752893 0 0 0 0 0 0 0 0 STD5.60
2026-01-15 12:43:44 23 18.40 0.115000 41.649648 41.62752893 0 0 0 0 0 0 0 0 STD5.60
2026-01-15 12:38:42 19 15.70 0.095000 41.649648 41.62752893 0 0 0 0 0 0 0 0 STD5.60
2026-01-15 12:33:40 14 14.20 0.070000 41.649648 41.62752893 0 0 0 0 0 0 0 0 STD5.60
2026-01-15 12:28:38 10 15.90 0.050000 41.649648 41.62752893 0 0 0 0 0 0 0 0 STD5.60
2026-01-15 12:23:33 23 17.80 0.115000 41.649648 41.62752893 0 0 0 0 0 0 0 0 STD5.60
2026-01-15 12:18:31 20 17.20 0.100000 41.649648 41.62752893 0 0 0 0 0 0 0 0 STD5.60
2026-01-15 12:13:29 19 17.90 0.095000 41.649648 41.62752893 0 0 0 0 0 0 0 0 STD5.60
2026-01-15 12:08:28 12 18.50 0.060000 41.649648 41.62752893 0 0 0 0 0 0 0 0 STD5.60
2026-01-15 12:03:26 16 19.70 0.080000 41.649648 41.62752893 0 0 0 0 0 0 0 0 STD5.60
2026-01-15 11:58:24 26 18.50 0.130000 41.649648 41.62752893 0 0 0 0 0 0 0 0 STD5.60
2026-01-15 11:53:22 16 16.80 0.080000 41.649648 41.62752893 0 0 0 0 0 0 0 0 STD5.60
2026-01-15 11:48:20 15 17.50 0.075000 41.649648 41.62752893 0 0 0 0 0 0 0 0 STD5.60
2026-01-15 11:43:18 13 16.90 0.065000 41.649648 41.62752893 0 0 0 0 0 0 0 0 STD5.60
2026-01-15 11:38:16 23 18.30 0.115000 41.649648 41.62752893 0 0 0 0 0 0 0 0 STD5.60
2026-01-15 11:33:14 22 16.40 0.110000 41.649648 41.62752893 0 0 0 0 0 0 0 0 STD5.60
2026-01-15 11:28:12 18 6.60 0.090000 41.649648 41.62752893 0 0 0 0 0 0 0 0 STD5.60
2026-01-15 11:23:08 21 18.00 0.105000 41.649648 41.62752893 0 0 0 0 0 0 0 0 STD5.60
2026-01-15 11:18:06 15 17.20 0.075000 41.649648 41.62752893 0 0 0 0 0 0 0 0 STD5.60
2026-01-15 11:13:05 16 14.90 0.080000 41.649648 41.62752893 0 0 0 0 0 0 0 0 STD5.60
2026-01-15 11:08:02 15 17.10 0.075000 41.649648 41.62752893 0 0 0 0 0 0 0 0 STD5.60
2026-01-15 11:02:59 16 18.80 0.080000 41.649648 41.62752893 0 0 0 0 0 0 0 0 STD5.60
2026-01-15 10:57:57 8 15.50 0.040000 41.649648 41.62752893 0 0 0 0 0 0 0 0 STD5.60
2026-01-15 10:52:56 16 14.70 0.080000 41.649648 41.62752893 0 0 0 0 0 0 0 0 STD5.60
2026-01-15 10:47:53 14 15.60 0.070000 41.649648 41.62752893 0 0 0 0 0 0 0 0 STD5.60
2026-01-15 10:42:51 18 15.70 0.090000 41.649648 41.62752893 0 0 0 0 0 0 0 0 STD5.60
2026-01-15 10:37:49 17 16.90 0.085000 41.649648 41.62752893 0 0 0 0 0 0 0 0 STD5.60
2026-01-15 10:32:47 20 18.50 0.100000 41.649648 41.62752893 0 0 0 0 0 0 0 0 STD5.60
2026-01-15 10:27:45 17 17.80 0.085000 41.649648 41.62752893 0 0 0 0 0 0 0 0 STD5.60
2026-01-15 10:22:42 15 17.30 0.075000 41.649648 41.62752893 0 0 0 0 0 0 0 0 STD5.60
2026-01-15 10:17:40 17 17.10 0.085000 41.649648 41.62752893 0 0 0 0 0 0 0 0 STD5.60
2026-01-15 10:12:38 18 16.70 0.090000 41.649648 41.62752893 0 0 0 0 0 0 0 0 STD5.60
2026-01-15 10:07:36 15 18.30 0.075000 41.649648 41.62752893 0 0 0 0 0 0 0 0 STD5.60
2026-01-15 10:02:34 17 19.10 0.085000 41.649648 41.62752893 0 0 0 0 0 0 0 0 STD5.60
2026-01-15 09:57:32 19 17.80 0.095000 41.649648 41.62752893 0 0 0 0 0 0 0 0 STD5.60
2026-01-15 09:52:30 25 16.40 0.125000 41.649648 41.62752893 0 0 0 0 0 0 0 0 STD5.60
2026-01-15 09:47:28 16 15.60 0.080000 41.649648 41.62752893 0 0 0 0 0 0 0 0 STD5.60
2026-01-15 09:42:26 15 16.10 0.075000 41.649648 41.62752893 0 0 0 0 0 0 0 0 STD5.60
2026-01-15 09:37:24 17 15.50 0.085000 41.649648 41.62752893 0 0 0 0 0 0 0 0 STD5.60
2026-01-15 09:32:22 8 16.60 0.040000 41.649648 41.62752893 0 0 0 0 0 0 0 0 STD5.60
2026-01-15 09:27:20 18 17.20 0.090000 41.649648 41.62752893 0 0 0 0 0 0 0 0 STD5.60
2026-01-15 09:22:16 14 16.60 0.070000 41.649648 41.62752893 0 0 0 0 0 0 0 0 STD5.60
2026-01-15 09:17:14 15 18.60 0.075000 41.649648 41.62752893 0 0 0 0 0 0 0 0 STD5.60
2026-01-15 09:12:12 17 19.80 0.085000 41.649648 41.62752893 0 0 0 0 0 0 0 0 STD5.60
2026-01-15 09:07:10 17 19.60 0.085000 41.649648 41.62752893 0 0 0 0 0 0 0 0 STD5.60
2026-01-15 09:02:08 16 19.30 0.080000 41.649648 41.62752893 0 0 0 0 0 0 0 0 STD5.60
2026-01-15 08:57:07 20 19.70 0.100000 41.649648 41.62752893 0 0 0 0 0 0 0 0 STD5.60
2026-01-15 08:52:05 19 18.40 0.095000 41.649648 41.62752893 0 0 0 0 0 0 0 0 STD5.60
2026-01-15 08:47:02 23 16.80 0.115000 41.649648 41.62752893 0 0 0 0 0 0 0 0 STD5.60
2026-01-15 08:42:00 16 17.30 0.080000 41.649648 41.62752893 0 0 0 0 0 0 0 0 STD5.60
2026-01-15 08:36:58 16 17.30 0.080000 41.649648 41.62752893 0 0 0 0 0 0 0 0 STD5.60
2026-01-15 08:31:56 20 18.00 0.100000 41.649648 41.62752893 0 0 0 0 0 0 0 0 STD5.60
2026-01-15 08:26:54 11 19.90 0.055000 41.649648 41.62752893 0 0 0 0 0 0 0 0 STD5.60
2026-01-15 08:21:51 27 19.70 0.135000 41.649648 41.62752893 0 0 0 0 0 0 0 0 STD5.60
2026-01-15 08:16:48 15 19.70 0.075000 41.649648 41.62752893 0 0 0 0 0 0 0 0 STD5.60
2026-01-15 08:11:46 33 18.60 0.165000 41.649648 41.62752893 0 0 0 0 0 0 0 0 STD5.60
2026-01-15 08:06:44 16 17.00 0.080000 41.649648 41.62752893 0 0 0 0 0 0 0 0 STD5.60
2026-01-15 08:01:42 19 17.90 0.095000 41.649648 41.62752893 0 0 0 0 0 0 0 0 STD5.60
2026-01-15 07:56:40 20 18.10 0.100000 41.649648 41.62752893 0 0 0 0 0 0 0 0 STD5.60
2026-01-15 07:51:38 17 16.80 0.085000 41.649648 41.62752893 0 0 0 0 0 0 0 0 STD5.60
2026-01-15 07:46:36 18 16.60 0.090000 41.649648 41.62752893 0 0 0 0 0 0 0 0 STD5.60
2026-01-15 07:41:34 12 16.50 0.060000 41.649648 41.62752893 0 0 0 0 0 0 0 0 STD5.60
2026-01-15 07:36:32 13 15.80 0.065000 41.649648 41.62752893 0 0 0 0 0 0 0 0 STD5.60
2026-01-15 07:31:30 14 15.60 0.070000 41.649648 41.62752893 0 0 0 0 0 0 0 0 STD5.60
2026-01-15 07:26:28 18 16.90 0.090000 41.649648 41.62752893 0 0 0 0 0 0 0 0 STD5.60
2026-01-15 07:21:23 20 17.70 0.100000 41.649648 41.62752893 0 0 0 0 0 0 0 0 STD5.60
2026-01-15 07:16:21 18 17.40 0.090000 41.649648 41.62752893 0 0 0 0 0 0 0 0 STD5.60
2026-01-15 07:11:20 15 17.20 0.075000 41.649648 41.62752893 0 0 0 0 0 0 0 0 STD5.60
2026-01-15 07:06:17 21 17.70 0.105000 41.649648 41.62752893 0 0 0 0 0 0 0 0 STD5.60
2026-01-15 07:01:15 17 15.80 0.085000 41.649648 41.62752893 0 0 0 0 0 0 0 0 STD5.60
2026-01-15 06:56:14 14 16.50 0.070000 41.649648 41.62752893 0 0 0 0 0 0 0 0 STD5.60
2026-01-15 06:51:12 18 16.50 0.090000 41.649648 41.62752893 0 0 0 0 0 0 0 0 STD5.60
2026-01-15 06:46:09 19 16.30 0.095000 41.649648 41.62752893 0 0 0 0 0 0 0 0 STD5.60
2026-01-15 06:41:07 9 17.90 0.045000 41.649648 41.62752893 0 0 0 0 0 0 0 0 STD5.60
2026-01-15 06:36:06 23 18.60 0.115000 41.649648 41.62752893 0 0 0 0 0 0 0 0 STD5.60
2026-01-15 06:31:04 18 17.50 0.090000 41.649648 41.62752893 0 0 0 0 0 0 0 0 STD5.60
2026-01-15 06:26:01 16 16.20 0.080000 41.649648 41.62752893 0 0 0 0 0 0 0 0 STD5.60
2026-01-15 06:20:58 17 15.60 0.085000 41.649648 41.62752893 0 0 0 0 0 0 0 0 STD5.60
2026-01-15 06:15:56 14 15.10 0.070000 41.649648 41.62752893 0 0 0 0 0 0 0 0 STD5.60
2026-01-15 06:10:54 21 16.20 0.105000 41.649648 41.62752893 0 0 0 0 0 0 0 0 STD5.60
2026-01-15 06:05:52 12 16.20 0.060000 41.649648 41.62752893 0 0 0 0 0 0 0 0 STD5.60
2026-01-15 06:00:49 24 15.50 0.120000 41.649648 41.62752893 0 0 0 0 0 0 0 0 STD5.60
2026-01-15 05:55:47 14 16.60 0.070000 41.649648 41.62752893 0 0 0 0 0 0 0 0 STD5.60
2026-01-15 05:50:46 26 17.90 0.130000 41.649648 41.62752893 0 0 0 0 0 0 0 0 STD5.60
2026-01-15 05:45:44 19 18.30 0.095000 41.649648 41.62752893 0 0 0 0 0 0 0 0 STD5.60
2026-01-15 05:40:41 28 19.30 0.140000 41.649648 41.62752893 0 0 0 0 0 0 0 0 STD5.60
2026-01-15 05:35:40 15 17.90 0.075000 41.649648 41.62752893 0 0 0 0 0 0 0 0 STD5.60
2026-01-15 05:30:38 15 16.50 0.075000 41.649648 41.62752893 0 0 0 0 0 0 0 0 STD5.60
2026-01-15 05:25:36 17 17.80 0.085000 41.649648 41.62752893 0 0 0 0 0 0 0 0 STD5.60
2026-01-15 05:20:33 25 17.40 0.125000 41.649648 41.62752893 0 0 0 0 0 0 0 0 STD5.60
2026-01-15 05:15:30 22 15.60 0.110000 41.649648 41.62752893 0 0 0 0 0 0 0 0 STD5.60
2026-01-15 05:10:29 7 14.40 0.035000 41.649648 41.62752893 0 0 0 0 0 0 0 0 STD5.60
2026-01-15 05:05:26 12 16.30 0.060000 41.649648 41.62752893 0 0 0 0 0 0 0 0 STD5.60
2026-01-15 05:00:24 17 18.20 0.085000 41.649648 41.62752893 0 0 0 0 0 0 0 0 STD5.60
2026-01-15 04:55:22 20 15.70 0.100000 41.649648 41.62752893 0 0 0 0 0 0 0 0 STD5.60
2026-01-15 04:50:21 15 16.00 0.075000 41.649648 41.62752893 0 0 0 0 0 0 0 0 STD5.60
2026-01-15 04:45:19 20 19.70 0.100000 41.649648 41.62752893 0 0 0 0 0 0 0 0 STD5.60
2026-01-15 04:40:17 16 20.10 0.080000 41.649648 41.62752893 0 0 0 0 0 0 0 0 STD5.60
2026-01-15 04:35:15 17 19.40 0.085000 41.649648 41.62752893 0 0 0 0 0 0 0 0 STD5.60
2026-01-15 04:30:13 17 18.90 0.085000 41.649648 41.62752893 0 0 0 0 0 0 0 0 STD5.60
2026-01-15 04:25:11 19 17.60 0.095000 41.649648 41.62752893 0 0 0 0 0 0 0 0 STD5.60
2026-01-15 04:20:07 15 18.90 0.075000 41.649648 41.62752893 0 0 0 0 0 0 0 0 STD5.60
2026-01-15 04:15:06 21 17.50 0.105000 41.649648 41.62752893 0 0 0 0 0 0 0 0 STD5.60
2026-01-15 04:10:03 14 15.90 0.070000 41.649648 41.62752893 0 0 0 0 0 0 0 0 STD5.60
2026-01-15 04:05:01 19 17.90 0.095000 41.649648 41.62752893 0 0 0 0 0 0 0 0 STD5.60
2026-01-15 03:59:59 21 18.60 0.105000 41.649648 41.62752893 0 0 0 0 0 0 0 0 STD5.60
2026-01-15 03:54:57 19 19.00 0.095000 41.649648 41.62752893 0 0 0 0 0 0 0 0 STD5.60
2026-01-15 03:49:56 15 18.80 0.075000 41.649648 41.62752893 0 0 0 0 0 0 0 0 STD5.60
2026-01-15 03:44:54 19 18.50 0.095000 41.649648 41.62752893 0 0 0 0 0 0 0 0 STD5.60
2026-01-15 03:39:52 18 19.70 0.090000 41.649648 41.62752893 0 0 0 0 0 0 0 0 STD5.60
2026-01-15 03:34:49 22 18.60 0.110000 41.649648 41.62752893 0 0 0 0 0 0 0 0 STD5.60
2026-01-15 03:29:48 22 16.60 0.110000 41.649648 41.62752893 0 0 0 0 0 0 0 0 STD5.60
2026-01-15 03:24:46 19 16.20 0.095000 41.649648 41.62752893 0 0 0 0 0 0 0 0 STD5.60
2026-01-15 03:19:42 16 15.90 0.080000 41.649648 41.62752893 0 0 0 0 0 0 0 0 STD5.60
2026-01-15 03:14:40 17 15.40 0.085000 41.649648 41.62752893 0 0 0 0 0 0 0 0 STD5.60
2026-01-15 03:09:39 12 17.50 0.060000 41.649648 41.62752893 0 0 0 0 0 0 0 0 STD5.60
2026-01-15 03:04:36 12 19.00 0.060000 41.649648 41.62752893 0 0 0 0 0 0 0 0 STD5.60
2026-01-15 02:59:34 20 18.50 0.100000 41.649648 41.62752893 0 0 0 0 0 0 0 0 STD5.60
2026-01-15 02:54:32 25 17.20 0.125000 41.649648 41.62752893 0 0 0 0 0 0 0 0 STD5.60
2026-01-15 02:49:31 19 15.80 0.095000 41.649648 41.62752893 0 0 0 0 0 0 0 0 STD5.60
2026-01-15 02:44:28 12 16.00 0.060000 41.649648 41.62752893 0 0 0 0 0 0 0 0 STD5.60
2026-01-15 02:39:27 16 16.90 0.080000 41.649648 41.62752893 0 0 0 0 0 0 0 0 STD5.60
2026-01-15 02:34:25 20 19.60 0.100000 41.649648 41.62752893 0 0 0 0 0 0 0 0 STD5.60
2026-01-15 02:29:23 22 18.60 0.110000 41.649648 41.62752893 0 0 0 0 0 0 0 0 STD5.60
2026-01-15 02:24:22 22 16.70 0.110000 41.649648 41.62752893 0 0 0 0 0 0 0 0 STD5.60
2026-01-15 02:19:16 13 16.80 0.065000 41.649648 41.62752893 0 0 0 0 0 0 0 0 STD5.60
2026-01-15 02:14:14 12 16.50 0.060000 41.649648 41.62752893 0 0 0 0 0 0 0 0 STD5.60
2026-01-15 02:09:13 17 17.50 0.085000 41.649648 41.62752893 0 0 0 0 0 0 0 0 STD5.60
2026-01-15 02:04:11 20 16.90 0.100000 41.649648 41.62752893 0 0 0 0 0 0 0 0 STD5.60
2026-01-15 01:59:09 15 16.50 0.075000 41.649648 41.62752893 0 0 0 0 0 0 0 0 STD5.60
2026-01-15 01:54:08 19 17.60 0.095000 41.649648 41.62752893 0 0 0 0 0 0 0 0 STD5.60
2026-01-15 01:49:06 14 16.20 0.070000 41.649648 41.62752893 0 0 0 0 0 0 0 0 STD5.60
2026-01-15 01:44:03 24 15.70 0.120000 41.649648 41.62752893 0 0 0 0 0 0 0 0 STD5.60
2026-01-15 01:39:01 19 15.90 0.095000 41.649648 41.62752893 0 0 0 0 0 0 0 0 STD5.60
2026-01-15 01:33:59 18 16.40 0.090000 41.649648 41.62752893 0 0 0 0 0 0 0 0 STD5.60
2026-01-15 01:28:58 20 19.80 0.100000 41.649648 41.62752893 0 0 0 0 0 0 0 0 STD5.60
2026-01-15 01:23:56 18 20.70 0.090000 41.649648 41.62752893 0 0 0 0 0 0 0 0 STD5.60
2026-01-15 01:18:51 18 19.30 0.090000 41.649648 41.62752893 0 0 0 0 0 0 0 0 STD5.60
2026-01-15 01:13:50 18 18.50 0.090000 41.649648 41.62752893 0 0 0 0 0 0 0 0 STD5.60
2026-01-15 01:08:48 17 17.70 0.085000 41.649648 41.62752893 0 0 0 0 0 0 0 0 STD5.60
2026-01-15 01:03:46 15 18.10 0.075000 41.649648 41.62752893 0 0 0 0 0 0 0 0 STD5.60
2026-01-15 00:58:44 22 17.80 0.110000 41.649648 41.62752893 0 0 0 0 0 0 0 0 STD5.60
2026-01-15 00:53:42 11 16.80 0.055000 41.649648 41.62752893 0 0 0 0 0 0 0 0 STD5.60
2026-01-15 00:48:40 18 16.40 0.090000 41.649648 41.62752893 0 0 0 0 0 0 0 0 STD5.60
2026-01-15 00:43:38 15 18.20 0.075000 41.649648 41.62752893 0 0 0 0 0 0 0 0 STD5.60
2026-01-15 00:38:36 16 18.20 0.080000 41.649648 41.62752893 0 0 0 0 0 0 0 0 STD5.60
2026-01-15 00:33:34 16 16.70 0.080000 41.649648 41.62752893 0 0 0 0 0 0 0 0 STD5.60
2026-01-15 00:28:32 20 16.80 0.100000 41.649648 41.62752893 0 0 0 0 0 0 0 0 STD5.60
2026-01-15 00:23:31 17 18.60 0.085000 41.649648 41.62752893 0 0 0 0 0 0 0 0 STD5.60
2026-01-15 00:18:14 25 20.80 0.125000 41.649648 41.62752893 0 0 0 0 0 0 0 0 STD5.60
2026-01-15 00:13:13 15 17.80 0.075000 41.649648 41.62752893 0 0 0 0 0 0 0 0 STD5.60
2026-01-15 00:08:11 14 17.00 0.070000 41.649648 41.62752893 0 0 0 0 0 0 0 0 STD5.60
2026-01-15 00:03:09 10 18.00 0.050000 41.649648 41.62752893 0 0 0 0 0 0 0 0 STD5.60
2026-01-14 23:58:06 22 18.50 0.110000 41.649648 41.62752893 0 0 0 0 0 0 0 0 STD5.60
2026-01-14 23:53:05 13 17.50 0.065000 41.649648 41.62752893 0 0 0 0 0 0 0 0 STD5.60
2026-01-14 23:48:03 14 17.00 0.070000 41.649648 41.62752893 0 0 0 0 0 0 0 0 STD5.60
2026-01-14 23:43:01 14 17.60 0.070000 41.649648 41.62752893 0 0 0 0 0 0 0 0 STD5.60
2026-01-14 23:37:59 19 15.50 0.095000 41.649648 41.62752893 0 0 0 0 0 0 0 0 STD5.60
2026-01-14 23:32:57 13 16.80 0.065000 41.649648 41.62752893 0 0 0 0 0 0 0 0 STD5.60
2026-01-14 23:27:55 19 19.70 0.095000 41.649648 41.62752893 0 0 0 0 0 0 0 0 STD5.60
2026-01-14 23:22:53 23 18.30 0.115000 41.649648 41.62752893 0 0 0 0 0 0 0 0 STD5.60
2026-01-14 23:17:49 18 15.60 0.090000 41.649648 41.62752893 0 0 0 0 0 0 0 0 STD5.60
2026-01-14 23:12:47 17 16.60 0.085000 41.649648 41.62752893 0 0 0 0 0 0 0 0 STD5.60
2026-01-14 23:07:45 12 17.30 0.060000 41.649648 41.62752893 0 0 0 0 0 0 0 0 STD5.60
2026-01-14 23:02:43 18 16.80 0.090000 41.649648 41.62752893 0 0 0 0 0 0 0 0 STD5.60
2026-01-14 22:57:42 18 18.00 0.090000 41.649648 41.62752893 0 0 0 0 0 0 0 0 STD5.60
2026-01-14 22:52:40 17 19.10 0.085000 41.649648 41.62752893 0 0 0 0 0 0 0 0 STD5.60
2026-01-14 22:47:38 25 18.20 0.125000 41.649648 41.62752893 0 0 0 0 0 0 0 0 STD5.60
2026-01-14 22:42:36 19 18.70 0.095000 41.649648 41.62752893 0 0 0 0 0 0 0 0 STD5.60
2026-01-14 22:37:34 14 19.60 0.070000 41.649648 41.62752893 0 0 0 0 0 0 0 0 STD5.60
2026-01-14 22:32:32 16 19.10 0.080000 41.649648 41.62752893 0 0 0 0 0 0 0 0 STD5.60
2026-01-14 22:27:30 18 18.70 0.090000 41.649648 41.62752893 0 0 0 0 0 0 0 0 STD5.60
2026-01-14 22:22:28 20 18.50 0.100000 41.649648 41.62752893 0 0 0 0 0 0 0 0 STD5.60
2026-01-14 22:17:24 22 18.40 0.110000 41.649648 41.62752893 0 0 0 0 0 0 0 0 STD5.60
2026-01-14 22:12:22 14 16.50 0.070000 41.649648 41.62752893 0 0 0 0 0 0 0 0 STD5.60
2026-01-14 22:07:20 11 16.50 0.055000 41.649648 41.62752893 0 0 0 0 0 0 0 0 STD5.60
2026-01-14 22:02:18 22 18.90 0.110000 41.649648 41.62752893 0 0 0 0 0 0 0 0 STD5.60
2026-01-14 21:57:17 21 20.30 0.105000 41.649648 41.62752893 0 0 0 0 0 0 0 0 STD5.60
2026-01-14 21:52:14 19 18.80 0.095000 41.649648 41.62752893 0 0 0 0 0 0 0 0 STD5.60
2026-01-14 21:47:14 22 19.80 0.110000 41.649648 41.62752893 0 0 0 0 0 0 0 0 STD5.60
2026-01-14 21:42:11 20 18.20 0.100000 41.649648 41.62752893 0 0 0 0 0 0 0 0 STD5.60
2026-01-14 21:37:09 16 16.30 0.080000 41.649648 41.62752893 0 0 0 0 0 0 0 0 STD5.60
2026-01-14 21:32:07 10 18.40 0.050000 41.649648 41.62752893 0 0 0 0 0 0 0 0 STD5.60
2026-01-14 21:27:05 17 19.50 0.085000 41.649648 41.62752893 0 0 0 0 0 0 0 0 STD5.60
2026-01-14 21:22:03 22 17.90 0.110000 41.649648 41.62752893 0 0 0 0 0 0 0 0 STD5.60
2026-01-14 21:16:58 12 16.30 0.060000 41.649648 41.62752893 0 0 0 0 0 0 0 0 STD5.60
2026-01-14 21:11:56 17 17.10 0.085000 41.649648 41.62752893 0 0 0 0 0 0 0 0 STD5.60
2026-01-14 21:06:54 20 17.90 0.100000 41.649648 41.62752893 0 0 0 0 0 0 0 0 STD5.60
2026-01-14 21:01:52 19 17.10 0.095000 41.649648 41.62752893 0 0 0 0 0 0 0 0 STD5.60
2026-01-14 20:56:50 17 15.50 0.085000 41.649648 41.62752893 0 0 0 0 0 0 0 0 STD5.60
2026-01-14 20:51:48 12 16.10 0.060000 41.649648 41.62752893 0 0 0 0 0 0 0 0 STD5.60
2026-01-14 20:46:47 17 15.70 0.085000 41.649648 41.62752893 0 0 0 0 0 0 0 0 STD5.60
2026-01-14 20:41:44 18 16.30 0.090000 41.649648 41.62752893 0 0 0 0 0 0 0 0 STD5.60
2026-01-14 20:36:42 17 17.70 0.085000 41.649648 41.62752893 0 0 0 0 0 0 0 0 STD5.60
2026-01-14 20:31:41 19 17.50 0.095000 41.649648 41.62752893 0 0 0 0 0 0 0 0 STD5.60
2026-01-14 20:26:39 17 17.30 0.085000 41.649648 41.62752893 0 0 0 0 0 0 0 0 STD5.60
2026-01-14 20:21:37 17 18.20 0.085000 41.649648 41.62752893 0 0 0 0 0 0 0 0 STD5.60
2026-01-14 20:16:33 17 18.00 0.085000 41.649648 41.62752893 0 0 0 0 0 0 0 0 STD5.60
2026-01-14 20:11:31 17 17.60 0.085000 41.649648 41.62752893 0 0 0 0 0 0 0 0 STD5.60
2026-01-14 20:06:29 17 19.40 0.085000 41.649648 41.62752893 0 0 0 0 0 0 0 0 STD5.60
2026-01-14 20:01:27 23 20.70 0.115000 41.649648 41.62752893 0 0 0 0 0 0 0 0 STD5.60
2026-01-14 19:56:25 17 19.90 0.085000 41.649648 41.62752893 0 0 0 0 0 0 0 0 STD5.60
2026-01-14 19:51:23 23 18.30 0.115000 41.649648 41.62752893 0 0 0 0 0 0 0 0 STD5.60
2026-01-14 19:46:22 17 17.80 0.085000 41.649648 41.62752893 0 0 0 0 0 0 0 0 STD5.60
Geiger Counter World Map       A real time radiation map.     Copyright 2015 All rights reserved.